WetterOnline ( http://www.wetteronline.de )

Wetter aktuell Düsseldorf

Aktuelles Wetter: Essen (161m)

6-stündlich | Neueste Meldungen
Ortszeit Temperatur Wetter
Fr, 17.08. 14:00 17.2° C bedeckt
Fr, 17.08. 8:00 15.6° C starker Regen
Fr, 17.08. 2:00 19.0° C leicht bewölkt
Do, 16.08. 20:00 25.0° C leicht bewölkt
Do, 16.08. 14:00 24.4° C leicht bewölkt
Do, 16.08. 8:00 16.5° C bedeckt
Do, 16.08. 2:00 16.1° C wolkenlos
Mi, 15.08. 20:00 21.4° C bewölkt
Ortszeit Temperatur Wetter
Fr, 17.08. 17:00 20.2° C leicht bewölkt
Fr, 17.08. 16:50 20.2° C leicht bewölkt
Fr, 17.08. 16:40 20.2° C bedeckt
Fr, 17.08. 16:30 20.6° C fast wolkenlos
Fr, 17.08. 16:20 20.6° C fast wolkenlos
Fr, 17.08. 16:10 20.7° C leicht bewölkt
Fr, 17.08. 16:00 20.0° C bewölkt
Fr, 17.08. 15:30 19.8° C wolkig
Fr, 17.08. 15:00 19.5° C leicht bewölkt
Fr, 17.08. 14:30 18.3° C bewölkt
Fr, 17.08. 14:00 17.2° C bedeckt
Ortszeit Relative Feuchte Sichtweite
Fr, 17.08. 14:00 85% 40 km
Fr, 17.08. 8:00 95% 3.1 km
Fr, 17.08. 2:00 74% 23 km
Do, 16.08. 20:00 48% 40 km
Do, 16.08. 14:00 51% 35 km
Do, 16.08. 8:00 90% 17 km
Do, 16.08. 2:00 93% 22 km
Mi, 15.08. 20:00 66% 50 km
Ortszeit Relative Feuchte Sichtweite
Fr, 17.08. 17:00 60% 45 km
Fr, 17.08. 16:50 60% -
Fr, 17.08. 16:40 60% -
Fr, 17.08. 16:30 58% 55 km
Fr, 17.08. 16:20 58% -
Fr, 17.08. 16:10 58% -
Fr, 17.08. 16:00 55% 60 km
Fr, 17.08. 15:30 68% 45 km
Fr, 17.08. 15:00 71% 35 km
Fr, 17.08. 14:30 80% 45 km
Fr, 17.08. 14:00 85% 40 km
Ortszeit Niederschlagsmenge Niederschlagsart
Fr, 17.08. 14:00 4 l/m2 in 6 Std. Regen
Fr, 17.08. 8:00 3 l/m2 in 12 Std. Regen
Fr, 17.08. 2:00 0.0 l/m2 in 6 Std. -
Do, 16.08. 20:00 0.0 l/m2 in 12 Std. -
Do, 16.08. 14:00 0.0 l/m2 in 6 Std. -
Do, 16.08. 8:00 0.0 l/m2 in 12 Std. -
Do, 16.08. 2:00 0.0 l/m2 in 6 Std. -
Mi, 15.08. 20:00 0.0 l/m2 in 12 Std. -
Ortszeit Niederschlagsmenge Niederschlagsart
Fr, 17.08. 17:00 0.0 l/m2 in 1 Std. -
Fr, 17.08. 16:50 keine Meldung -
Fr, 17.08. 16:40 keine Meldung -
Fr, 17.08. 16:30 0.0 l/m2 in 1 Std. -
Fr, 17.08. 16:20 keine Meldung -
Fr, 17.08. 16:10 keine Meldung -
Fr, 17.08. 16:00 0.0 l/m2 in 1 Std. -
Fr, 17.08. 15:30 0.0 l/m2 in 1 Std. -
Fr, 17.08. 15:00 0.0 l/m2 in 1 Std. -
Fr, 17.08. 14:30 0.0 l/m2 in 1 Std. -
Fr, 17.08. 14:00 0.0 l/m2 in 1 Std. Regen
Ortszeit Stärke Spitze Richtung
km/h Bft. km/h Grad Sektor
Fr, 17.08. 14:00 9 2 24 330° NW
Fr, 17.08. 8:00 11 2 32 10° N
Fr, 17.08. 2:00 9 2 22 50° NO
Do, 16.08. 20:00 7 2 22 320° NW
Do, 16.08. 14:00 13 3 28 200° S
Do, 16.08. 8:00 4 1 11 180° S
Do, 16.08. 2:00 4 1 14 190° S
Mi, 15.08. 20:00 9 2 28 240° SW
Ortszeit Stärke Spitze Richtung
km/h Bft. km/h Grad Sektor
Fr, 17.08. 17:00 7 2 22 360° N
Fr, 17.08. 16:50 7 2 - 360° N
Fr, 17.08. 16:40 13 3 - 350° N
Fr, 17.08. 16:30 11 2 22 360° N
Fr, 17.08. 16:20 11 2 - 360° N
Fr, 17.08. 16:10 9 2 - 10° N
Fr, 17.08. 16:00 11 2 22 330° NW
Fr, 17.08. 15:30 9 2 19 300° NW
Fr, 17.08. 15:00 9 2 15 320° NW
Fr, 17.08. 14:30 9 2 15 340° N
Fr, 17.08. 14:00 9 2 20 330° NW
Ortszeit Untergrenze Bedeckung Gattung
total tief tief mittel hoch
Fr, 17.08. 14:00 300 m 8/8 8/8 - - -
Fr, 17.08. 8:00 510 m 8/8 8/8 - - -
Fr, 17.08. 2:00 10500 m 5/8 0/8 - - -
Do, 16.08. 20:00 9000 m 4/8 0/8 - - -
Do, 16.08. 14:00 9000 m 7/8 0/8 - - -
Do, 16.08. 8:00 870 m 8/8 8/8 - - -
Do, 16.08. 2:00 - 0/8 0/8 - - -
Mi, 15.08. 20:00 1500 m 7/8 7/8 - - -
Ortszeit Bedeckungsgrad in Achtel und Wolkenuntergrenze
Fr, 17.08. 17:00 3(1230m)
Fr, 17.08. 16:50 3(1230m)
Fr, 17.08. 16:40 9 9 9
Fr, 17.08. 16:30 1(960m)
Fr, 17.08. 16:20 1(960m)
Fr, 17.08. 16:10 2(960m)
Fr, 17.08. 16:00 5(960m)
Fr, 17.08. 15:30 2(600m) 5(780m) 5(990m)
Fr, 17.08. 15:00 2(450m) 3(1440m) 4(1440m)
Fr, 17.08. 14:30 7(420m) 7(600m) 7(750m)
Fr, 17.08. 14:00 8(300m)
Ortszeit Luftdruck NN (hPa) Tendenz (hPa in 3 Std.)
Fr, 17.08. 14:00 1019 + 1,0
Fr, 17.08. 8:00 1017 + 1,1
Fr, 17.08. 2:00 1014 - 0,1
Do, 16.08. 20:00 1014 - 0,6
Do, 16.08. 14:00 1016 - 1,2
Do, 16.08. 8:00 1018 - 0,3
Do, 16.08. 2:00 1019 - 0,3
Mi, 15.08. 20:00 1019 - 0,5
Ortszeit Luftdruck NN (hPa) Tendenz (hPa in 3 Std.)
Fr, 17.08. 17:00 1019 - 0,1
Fr, 17.08. 16:50 1019 keine Meldung
Fr, 17.08. 16:40 1019 keine Meldung
Fr, 17.08. 16:30 1019 + 0,3
Fr, 17.08. 16:20 1019 keine Meldung
Fr, 17.08. 16:10 1019 keine Meldung
Fr, 17.08. 16:00 1019 + 0,6
Fr, 17.08. 15:30 1019 + 0,7
Fr, 17.08. 15:00 1019 + 0,8
Fr, 17.08. 14:30 1019 + 0,9
Fr, 17.08. 14:00 1019 + 1,0
Ortszeit Schneehöhe (cm)
Fr, 17.08. 14:00 -
Fr, 17.08. 8:00 -
Fr, 17.08. 2:00 -
Do, 16.08. 20:00 -
Do, 16.08. 14:00 -
Do, 16.08. 8:00 -
Do, 16.08. 2:00 -
Mi, 15.08. 20:00 -
Ortszeit Schneehöhe (cm)
Fr, 17.08. 17:00 -
Fr, 17.08. 16:50 -
Fr, 17.08. 16:40 -
Fr, 17.08. 16:30 -
Fr, 17.08. 16:20 -
Fr, 17.08. 16:10 -
Fr, 17.08. 16:00 -
Fr, 17.08. 15:30 -
Fr, 17.08. 15:00 -
Fr, 17.08. 14:30 -
Fr, 17.08. 14:00 -
Link zu dieser Seite / Seite empfehlen

Das Wetter in ...